[[{"header":{"parameterUnit":"m.s-1","parameterCategory":1,"la1":30.2991,"la2":30.254,"lo1":-89.0895,"lo2":-89.0444,"dy":0.0017,"dx":0.0017,"nx":28,"ny":28,"refTime":"2024-05-13T03:00:00:Z","depth":0,"parameterNumber":2,"parameterNumberName":"U-component_of_WINDS"},"data":[0,0,0,0,0,0,0,0,0,0,0,0,0,0,0,0,0,0,0,0,0,0,0,0,0,0,0,0,0,0,0,0,0,0,0,0,0,0,0,0,0,0,0,0,0,0,0,0,0,0,0,0,0,0,0,0,0,0,-5.4501,-5.4499,0,-5.4372,-5.437,-5.4369,-5.4192,-5.4189,-5.4186,-5.4183,-5.4048,-5.4047,-5.4047,0,0,0,0,0,0,0,0,0,0,0,0,0,-5.4595,-5.4594,-5.4501,-5.4499,-5.4498,-5.4372,-5.437,-5.4368,-5.4193,-5.4189,-5.4185,-5.4182,-5.4049,-5.4048,-5.4047,0,0,0,0,0,0,0,0,0,0,0,0,0,-5.4519,-5.4594,-5.4501,-5.4395,-5.4384,-5.4372,-5.437,-5.4368,-5.4193,-5.4189,-5.4184,-5.418,-5.4049,-5.4048,-5.4046,-5.4127,0,0,-5.4043,-5.4042,0,0,0,0,0,0,0,0,-5.4523,-5.4515,-5.4412,-5.4402,-5.439,-5.4293,-5.4353,-5.4287,-5.4194,-5.4266,-5.4183,-5.4178,-5.4133,-5.4125,-5.411,-5.4121,-5.4115,-5.4042,-5.4042,-5.4041,-5.4041,0,0,0,0,0,0,0,-5.4529,-5.452,-5.4449,-5.4411,-5.4397,-5.4353,-5.4338,-5.434,-5.4226,-5.4259,-5.4246,-5.4233,-5.4126,-5.4112,-5.4106,-5.4113,-5.4042,-5.4041,-5.4041,-5.404,-5.4183,-5.4187,0,0,0,0,0,0,-5.455,-5.4526,-5.4454,-5.4446,-5.4447,-5.4355,-5.4338,-5.4329,-5.4225,-5.4205,-5.4237,-5.4226,-5.4116,-5.4107,-5.41,-5.4186,-5.4041,-5.404,-5.4039,-5.4178,-5.4184,-5.4189,0,0,0,0,0,0,-5.4553,-5.4545,-5.4459,-5.4482,-5.4468,-5.4358,-5.435,-5.4329,-5.4314,-5.4209,-5.4187,-5.4243,-5.4112,-5.4102,-5.4122,-5.4179,-5.4039,-5.4038,-5.4173,-5.418,-5.4186,-5.4359,0,0,0,0,0,0,-5.4556,-5.4547,-5.4577,-5.4484,-5.4467,-5.4483,-5.4354,-5.4329,-5.4312,-5.4296,-5.4209,-5.419,-5.4108,-5.4125,-5.4121,-5.4174,-5.4037,-5.4167,-5.4176,-5.4184,-5.4348,-5.4371,-5.4391,0,0,0,0,0,-5.456,-5.463,-5.4579,-5.4571,-5.4502,-5.4487,-5.4477,-5.4382,-5.4318,-5.4346,-5.4279,-5.4193,-5.4175,-5.4128,-5.4122,-5.4176,-5.4163,-5.4174,-5.4184,-5.4338,-5.4367,-5.4391,0,0,0,0,0,0,-5.4731,-5.4616,-5.4558,-5.46,-5.4555,-5.4457,-5.4489,-5.4415,-5.4386,-5.4372,-5.4255,-5.4237,-5.427,-5.4226,-5.4176,-5.4249,-5.4156,-5.4166,-5.4276,-5.4302,-5.4323,-5.433,-5.4036,0,0,0,0,0,-5.4774,-5.4772,-5.4672,-5.4719,-5.4699,-5.46,-5.4589,-5.4521,-5.4468,-5.4447,-5.4381,-5.4334,-5.4316,-5.4308,-5.4286,-5.4343,-5.432,-5.4378,-5.4399,-5.4418,-5.4425,-5.445,-5.4473,-5.4222,-5.4222,-5.4222,0,0,-5.4862,-5.4799,-5.4804,-5.4752,-5.4708,-5.4708,-5.4584,-5.4589,-5.4587,-5.4448,-5.4461,-5.4413,-5.4351,-5.439,-5.4403,-5.4353,-5.4491,-5.4431,-5.4446,-5.4443,-5.4463,-5.4487,-5.4508,-5.4229,-5.4228,-5.4227,0,0,-5.502,-5.4975,-5.5007,-5.4967,-5.4904,-5.4837,-5.4846,-5.476,-5.4722,-5.4735,-5.4631,-5.4628,-5.4602,-5.4561,-5.4538,-5.4686,-5.4605,-5.4683,-5.4794,-5.4819,-5.4839,-5.4856,-5.4905,-5.4925,-5.4693,-5.4693,-5.4693,0,-5.5137,-5.5132,-5.5034,-5.5045,-5.5024,-5.4902,-5.4933,-5.4899,-5.4833,-5.4821,-5.4767,-5.4732,-5.4683,-5.4709,-5.4745,-5.4732,-5.4736,-5.4689,-5.4844,-5.486,-5.4874,-5.492,-5.4939,-5.4703,-5.4702,-5.4701,-5.47,0,-5.5277,-5.5276,-5.5311,-5.525,-5.5234,-5.5256,-5.516,-5.5156,-5.5091,-5.503,-5.5045,-5.4982,-5.4945,-5.4948,-5.4883,-5.4965,-5.4936,-5.4866,-5.4769,-5.4909,-5.495,-5.4967,-5.4716,-5.4713,-5.471,-5.4708,0,0,-5.5534,-5.5421,-5.5435,-5.5405,-5.5328,-5.5325,-5.5343,-5.5308,-5.5305,-5.5266,-5.5275,-5.5258,-5.5193,-5.5166,-5.5097,-5.512,-5.5238,-5.5046,-5.5043,-5.508,-5.5321,-5.5371,-5.5393,-5.5187,-5.519,-5.5192,-5.5325,0,-5.5674,-5.5695,-5.5609,-5.5653,-5.565,-5.5536,-5.555,-5.5505,-5.545,-5.5439,-5.5379,-5.5367,-5.5284,-5.5267,-5.5285,-5.522,-5.5284,-5.521,-5.5191,-5.5192,-5.5204,-5.5414,-5.5466,-5.5594,-5.534,-5.5343,-5.5345,0,-5.5838,-5.5807,-5.5852,-5.5772,-5.5768,-5.5783,-5.5744,-5.5736,-5.5683,-5.5641,-5.5614,-5.5535,-5.5545,-5.5458,-5.547,-5.5422,-5.541,-5.5378,-5.538,-5.537,-5.5273,-5.5405,-5.5633,-5.5651,-5.537,-5.5368,-5.5366,0,-5.6016,-5.5986,-5.6008,-5.5987,-5.5897,-5.5909,-5.5872,-5.5815,-5.58,-5.5767,-5.5756,-5.5725,-5.5707,-5.5685,-5.56,-5.5545,-5.5621,-5.5527,-5.5584,-5.5586,-5.56,-5.5599,-5.5824,-5.5602,-5.5602,-5.5602,-5.5601,0,-5.6178,-5.6208,-5.6086,-5.6099,-5.613,-5.6032,-5.6065,-5.6017,-5.5967,-5.5968,-5.587,-5.5873,-5.5762,-5.5753,-5.5687,-5.5705,-5.5699,-5.5664,-5.5645,-5.567,-5.5674,-5.5656,-5.5643,-5.5607,-5.5606,-5.5605,-5.5604,0,-5.6378,-5.6299,-5.6314,-5.6229,-5.6208,-5.6235,-5.6161,-5.6169,-5.611,-5.6113,-5.6108,-5.6015,-5.5999,-5.5914,-5.5878,-5.5834,-5.5874,-5.584,-5.5892,-5.5878,-5.5939,-5.5933,-5.6156,-5.6179,-5.5948,-5.5951,-5.5953,0,-5.6484,-5.6505,-5.6423,-5.6417,-5.6384,-5.6377,-5.6361,-5.6267,-5.6255,-5.6197,-5.6212,-5.6189,-5.6164,-5.6145,-5.6073,-5.6046,-5.6007,-5.6088,-5.6002,-5.6026,-5.6003,-5.6,-5.6001,-5.6104,-5.6107,-5.6109,-5.6111,0,-5.6679,-5.6639,-5.6621,-5.659,-5.6575,-5.6546,-5.6511,-5.6512,-5.6408,-5.6399,-5.6383,-5.6365,-5.6329,-5.6306,-5.6267,-5.6228,-5.6152,-5.614,-5.6151,-5.6173,-5.6201,-5.6182,-5.5936,-5.6134,-5.6131,-5.613,-5.6129,-5.6128,-5.6832,-5.6844,-5.6789,-5.6772,-5.6737,-5.6707,-5.671,-5.6653,-5.6637,-5.6601,-5.6548,-5.6538,-5.6485,-5.6425,-5.6392,-5.6383,-5.6339,-5.6356,-5.6359,-5.6364,-5.6375,-5.6208,-5.6376,-5.6375,-5.6374,-5.6374,-5.6373,0,-5.7018,-5.6977,-5.6963,-5.6918,-5.6905,-5.6839,-5.6797,-5.679,-5.6783,-5.6741,-5.672,-5.6701,-5.6679,-5.6609,-5.6579,-5.6585,-5.6549,-5.658,-5.6576,-5.6568,-5.6418,-5.6409,-5.661,-5.6609,-5.6609,-5.6609,-5.6609,-5.6609,-5.7112,-5.713,-5.7084,-5.7083,-5.7042,-5.7032,-5.7014,-5.6985,-5.6951,-5.6934,-5.6916,-5.6871,-5.6817,-5.6784,-5.6761,-5.674,-5.6732,-5.6774,-5.6742,-5.6601,-5.6578,-5.6557,-5.6547,-5.6774,-5.6774,-5.6891,-5.6892,-5.6893]},{"header":{"parameterUnit":"m.s-1","parameterCategory":1,"la1":30.2991,"la2":30.254,"lo1":-89.0895,"lo2":-89.0444,"dy":0.0017,"dx":0.0017,"nx":28,"ny":28,"refTime":"2024-05-13T03:00:00:Z","depth":0,"parameterNumber":3,"parameterNumberName":"V-component_of_WINDS"},"data":[0,0,0,0,0,0,0,0,0,0,0,0,0,0,0,0,0,0,0,0,0,0,0,0,0,0,0,0,0,0,0,0,0,0,0,0,0,0,0,0,0,0,0,0,0,0,0,0,0,0,0,0,0,0,0,0,0,0,1.622,1.622,0,1.6196,1.6196,1.6196,1.6161,1.6161,1.616,1.6159,1.6133,1.6133,1.6133,0,0,0,0,0,0,0,0,0,0,0,0,0,1.6236,1.6236,1.622,1.622,1.622,1.6196,1.6196,1.6196,1.6161,1.6161,1.616,1.6159,1.6133,1.6133,1.6133,0,0,0,0,0,0,0,0,0,0,0,0,0,1.6222,1.6236,1.622,1.62,1.6198,1.6196,1.6196,1.6196,1.6161,1.6161,1.616,1.6159,1.6133,1.6133,1.6133,1.6149,0,0,1.6132,1.6132,0,0,0,0,0,0,0,0,1.6223,1.6222,1.6203,1.6201,1.6199,1.6181,1.6192,1.618,1.6162,1.6175,1.6159,1.6158,1.6149,1.6148,1.6145,1.6148,1.6146,1.6132,1.6132,1.6132,1.6131,0,0,0,0,0,0,0,1.6224,1.6223,1.6211,1.6203,1.62,1.6192,1.6189,1.6189,1.6167,1.6174,1.6171,1.6169,1.6148,1.6145,1.6144,1.6146,1.6132,1.6132,1.6131,1.6131,1.6161,1.6162,0,0,0,0,0,0,1.6228,1.6224,1.6212,1.621,1.6209,1.6192,1.6189,1.6188,1.6167,1.6164,1.617,1.6168,1.6146,1.6145,1.6143,1.6161,1.6132,1.6131,1.6131,1.616,1.6162,1.6163,0,0,0,0,0,0,1.6229,1.6228,1.6213,1.6216,1.6214,1.6193,1.6192,1.6188,1.6185,1.6164,1.616,1.6171,1.6146,1.6144,1.6148,1.6159,1.6131,1.6131,1.6159,1.6161,1.6162,1.6196,0,0,0,0,0,0,1.6229,1.6228,1.6234,1.6217,1.6214,1.6218,1.6192,1.6188,1.6185,1.6182,1.6165,1.6161,1.6145,1.6149,1.6148,1.6159,1.6131,1.6158,1.616,1.6162,1.6194,1.6199,1.6203,0,0,0,0,0,1.623,1.6244,1.6234,1.6233,1.6221,1.6219,1.6217,1.6198,1.6186,1.6191,1.6179,1.6161,1.6159,1.6149,1.6148,1.6159,1.6157,1.6159,1.6162,1.6192,1.6198,1.6203,0,0,0,0,0,0,1.6262,1.6241,1.623,1.6239,1.6231,1.6213,1.6219,1.6205,1.62,1.6197,1.6174,1.617,1.6178,1.6169,1.6159,1.6174,1.6156,1.6158,1.6179,1.6184,1.6189,1.619,1.6131,0,0,0,0,0,1.627,1.627,1.6252,1.6262,1.6258,1.624,1.6238,1.6225,1.6216,1.6212,1.6199,1.619,1.6187,1.6186,1.6182,1.6194,1.6189,1.6201,1.6205,1.6209,1.621,1.6216,1.622,1.617,1.617,1.6169,0,0,1.6286,1.6275,1.6277,1.6268,1.626,1.6261,1.6237,1.6238,1.6239,1.6212,1.6215,1.6206,1.6194,1.6203,1.6206,1.6195,1.6224,1.6211,1.6214,1.6214,1.6218,1.6223,1.6227,1.6171,1.6171,1.6171,0,0,1.6316,1.6308,1.6315,1.6309,1.6298,1.6285,1.6288,1.6272,1.6265,1.6268,1.6248,1.6249,1.6244,1.6237,1.6233,1.6263,1.6247,1.6263,1.6284,1.629,1.6294,1.6298,1.6308,1.6312,1.6264,1.6265,1.6265,0,1.6337,1.6338,1.632,1.6324,1.632,1.6298,1.6305,1.6299,1.6287,1.6285,1.6275,1.627,1.626,1.6267,1.6274,1.6272,1.6273,1.6263,1.6295,1.6298,1.6301,1.6311,1.6314,1.6266,1.6266,1.6266,1.6266,0,1.6365,1.6366,1.6373,1.6363,1.6361,1.6366,1.6349,1.6349,1.6337,1.6326,1.633,1.6319,1.6313,1.6314,1.6302,1.6319,1.6313,1.63,1.628,1.6308,1.6317,1.632,1.6269,1.6268,1.6268,1.6267,0,0,1.6411,1.6393,1.6396,1.6391,1.6379,1.6379,1.6384,1.6379,1.6379,1.6373,1.6375,1.6374,1.6362,1.6357,1.6344,1.635,1.6374,1.6335,1.6335,1.6342,1.6391,1.6401,1.6405,1.6364,1.6365,1.6365,1.6392,0,1.6437,1.6444,1.6429,1.6439,1.644,1.642,1.6424,1.6417,1.6407,1.6407,1.6396,1.6395,1.6379,1.6377,1.6381,1.637,1.6383,1.6368,1.6365,1.6366,1.6367,1.6409,1.6419,1.6444,1.6395,1.6396,1.6396,0,1.6468,1.6464,1.6474,1.6462,1.6462,1.6466,1.6461,1.6461,1.6452,1.6445,1.6442,1.6427,1.6431,1.6414,1.6419,1.6409,1.6408,1.6402,1.6403,1.64,1.6381,1.6406,1.6452,1.6456,1.6401,1.6401,1.6401,0,1.6499,1.6497,1.6503,1.65,1.6486,1.649,1.6484,1.6475,1.6474,1.6469,1.6468,1.6464,1.6462,1.6459,1.6444,1.6434,1.6451,1.6433,1.6444,1.6445,1.6447,1.6446,1.6491,1.6449,1.6449,1.6449,1.6449,0,1.6529,1.6536,1.6517,1.652,1.6528,1.6512,1.6519,1.6512,1.6505,1.6506,1.6489,1.6491,1.6473,1.6473,1.6461,1.6467,1.6466,1.646,1.6457,1.6461,1.6461,1.6458,1.6455,1.645,1.645,1.645,1.6449,0,1.6564,1.6552,1.6557,1.6545,1.6542,1.6548,1.6537,1.654,1.6531,1.6533,1.6533,1.6518,1.6517,1.6503,1.6499,1.6492,1.6501,1.6495,1.6504,1.6501,1.6513,1.6512,1.6556,1.6561,1.6517,1.6517,1.6518,0,1.6583,1.6588,1.6577,1.6577,1.6572,1.6573,1.6572,1.6557,1.6556,1.6549,1.6552,1.6551,1.6548,1.6548,1.6537,1.6534,1.6527,1.6543,1.6526,1.653,1.6525,1.6525,1.6525,1.6545,1.6546,1.6546,1.6547,0,1.6617,1.6611,1.661,1.6608,1.6607,1.6604,1.66,1.6601,1.6585,1.6585,1.6584,1.6583,1.658,1.6578,1.6574,1.6568,1.6554,1.6553,1.6555,1.6558,1.6562,1.6559,1.6512,1.6551,1.655,1.655,1.655,1.655,1.6644,1.6647,1.664,1.664,1.6636,1.6633,1.6635,1.6627,1.6626,1.6623,1.6615,1.6616,1.6609,1.6602,1.6597,1.6598,1.659,1.6593,1.6594,1.6595,1.6597,1.6564,1.6597,1.6597,1.6597,1.6597,1.6597,0,1.6676,1.6671,1.6671,1.6667,1.6667,1.6656,1.6651,1.6652,1.6653,1.6648,1.6647,1.6647,1.6646,1.6636,1.6633,1.6636,1.663,1.6636,1.6634,1.6633,1.6604,1.6602,1.6641,1.6641,1.6641,1.6641,1.6641,1.6641,1.6693,1.6698,1.6692,1.6696,1.6691,1.6692,1.6691,1.6688,1.6684,1.6685,1.6684,1.6678,1.6671,1.6669,1.6667,1.6664,1.6664,1.6671,1.6666,1.6639,1.6635,1.6631,1.6628,1.6672,1.6672,1.6695,1.6695,1.6695]}]]